Location: Newark
(13.8117°N, 3.6025°W)
Time: 00:14:53
(UTC+00:00)

Vanguard 2 - Pass Details

Date: 31 August 2019
Orbit: 554 x 2937 km, 32.9° (Epoch: 18 October)

Event Time Altitude Azimuth Distance (km) Brightness Sun altitude
Rises 05:30:03 0° 209° (SSW) 4,364 11.0 -8.7°
Reaches altitude 10° 05:34:45 10° 190° (S) 2,898 10.3 -7.5°
Maximum altitude 05:38:40 16° 154° (SSE) 2,112 10.0 -6.6°
Drops below altitude 10° 05:41:48 10° 116° (ESE) 2,234 10.8 -5.9°
Sets 05:44:43 0° 92° (E) 2,936 12.6 -5.2°
